Temp
-8 -8 -8 -8 -8 -8 -8 -8 -8 -8 -8 -9 -9 -9 -9 -9 -9 -9 -9 -9 -10 -10 -10 -10 -10 -10 -10 -10 -10 -10 -10 -10 -10 -10 -10 -10 -10 -10 -10 -10 -10 -10 -10 -10 -10
-9 -9 -9 -9 -9 -8 -9 -9 -9 -9 -9 -9 -9 -9 -9 -10 -9 -9 -10 -10 -10 -10 -10 -11 -11 -10 -10 -10 -10 -10 -10 -10 -10 -10 -10 -10 -10 -10 -10 -10 -10 -10 -10 -10 -10
-9 -9 -9 -9 -9 -9 -9 -9 -9 -9 -9 -9 -9 -9 -9 -9 -9 -10 -10 -10 -10 -10 -11 -11 -11 -11 -11 -11 -10 -10 -10 -10 -10 -10 -11 -11 -10 -11 -11 -10 -10 -10 -10 -11 -11
-10 -9 -9 -9 -9 -9 -9 -9 -9 -9 -9 -9 -10 -10 -10 -10 -10 -10 -10 -10 -10 -10 -11 -11 -11 -11 -11 -11 -11 -10 -10 -11 -11 -11 -11 -11 -11 -11 -11 -11 -10 -11 -11 -11 -11
-10 -10 -10 -10 -10 -10 -10 -10 -10 -10 -10 -10 -10 -10 -10 -10 -10 -10 -10 -10 -10 -11 -11 -11 -11 -11 -11 -11 -11 -11 -11 -11 -11 -11 -11 -11 -11 -11 -11 -11 -11 -11 -11 -11 -11
-11 -11 -10 -10 -10 -10 -10 -10 -10 -10 -10 -10 -10 -10 -10 -10 -10 -10 -10 -10 -10 -11 -11 -11 -11 -11 -11 -11 -11 -11 -11 -11 -11 -11 -11 -11 -11 -11 -11 -11 -11 -11 -11 -11 -11
-12 -11 -11 -11 -11 -10 -11 -11 -10 -10 -10 -10 -10 -10 -10 -10 -10 -10 -11 -11 -11 -11 -11 -12 -11 -11 -11 -11 -11 -11 -11 -11 -11 -11 -11 -11 -11 -11 -11 -11 -11 -11 -11 -11 -11
-12 -12 -11 -12 -11 -11 -11 -11 -11 -11 -11 -11 -11 -11 -11 -11 -11 -11 -11 -11 -11 -11 -12 -12 -12 -11 -11 -11 -11 -11 -11 -11 -11 -12 -12 -11 -12 -12 -11 -12 -11 -11 -11 -11 -11
-13 -12 -12 -12 -11 -12 -11 -11 -11 -11 -11 -11 -11 -11 -11 -11 -11 -11 -11 -12 -11 -11 -12 -12 -12 -11 -11 -11 -11 -11 -11 -11 -11 -12 -12 -12 -12 -12 -12 -12 -12 -12 -12 -12 -12
-13 -12 -12 -12 -12 -12 -12 -12 -12 -11 -11 -11 -11 -11 -11 -11 -11 -12 -12 -12 -11 -12 -12 -12 -11 -11 -11 -12 -12 -12 -12 -12 -12 -12 -12 -12 -12 -12 -12 -12 -12 -12 -12 -12 -12
-13 -13 -13 -13 -13 -12 -12 -12 -12 -12 -12 -12 -12 -12 -12 -12 -12 -12 -12 -12 -12 -12 -12 -12 -11 -11 -11 -11 -12 -12 -12 -12 -12 -12 -12 -12 -12 -12 -12 -12 -12 -12 -12 -12 -12
-13 -13 -13 -13 -13 -12 -12 -12 -12 -12 -12 -12 -12 -12 -12 -12 -12 -12 -12 -12 -12 -12 -12 -12 -11 -11 -11 -11 -12 -11 -12 -12 -12 -12 -12 -12 -12 -12 -12 -12 -12 -12 -12 -12 -12
-13 -13 -13 -13 -13 -12 -13 -13 -12 -12 -12 -12 -12 -12 -12 -12 -12 -12 -12 -12 -12 -12 -12 -12 -11 -11 -11 -12 -12 -12 -12 -12 -12 -12 -12 -12 -12 -12 -12 -12 -12 -12 -12 -12 -12
-14 -14 -13 -13 -13 -13 -13 -13 -13 -12 -12 -12 -12 -13 -12 -12 -12 -12 -12 -13 -13 -12 -12 -12 -12 -12 -12 -12 -11 -11 -12 -12 -12 -12 -12 -12 -12 -12 -12 -12 -12 -12 -12 -12 -12
-13 -13 -14 -13 -13 -13 -13 -13 -13 -13 -12 -12 -12 -12 -12 -12 -12 -13 -13 -13 -13 -13 -12 -12 -12 -12 -12 -12 -12 -12 -12 -12 -12 -12 -12 -12 -12 -12 -12 -13 -12 -12 -12 -12 -12
-13 -13 -13 -13 -13 -13 -14 -14 -13 -13 -12 -12 -12 -12 -12 -12 -12 -13 -13 -13 -13 -13 -13 -13 -12 -12 -12 -12 -12 -12 -12 -12 -12 -12 -12 -12 -12 -12 -12 -13 -13 -13 -12 -12 -12
-13 -13 -13 -13 -14 -14 -15 -15 -14 -12 -11 -12 -12 -12 -12 -13 -13 -13 -13 -13 -13 -13 -13 -13 -13 -13 -12 -12 -12 -12 -12 -12 -12 -12 -13 -13 -13 -12 -13 -13 -13 -13 -13 -12 -12
-14 -13 -13 -13 -13 -14 -15 -16 -13 -11 -12 -12 -13 -12 -13 -13 -13 -13 -13 -13 -13 -13 -13 -13 -13 -13 -13 -12 -12 -12 -13 -12 -12 -12 -13 -13 -13 -13 -13 -13 -13 -13 -13 -13 -13
-14 -14 -14 -14 -14 -14 -14 -14 -11 -12 -12 -13 -13 -13 -13 -13 -14 -14 -14 -14 -14 -14 -14 -14 -13 -13 -13 -13 -13 -13 -13 -13 -13 -12 -12 -13 -13 -13 -13 -13 -13 -13 -13 -13 -13
-15 -15 -14 -14 -14 -14 -14 -13 -12 -12 -12 -13 -13 -14 -14 -15 -15 -15 -14 -14 -14 -14 -14 -14 -14 -14 -13 -13 -13 -13 -13 -13 -13 -13 -12 -12 -13 -14 -13 -13 -13 -13 -13 -13 -13
-16 -16 -15 -15 -15 -15 -14 -12 -13 -13 -13 -13 -14 -15 -15 -15 -15 -15 -15 -14 -14 -14 -14 -14 -14 -14 -14 -13 -13 -13 -13 -13 -13 -13 -13 -12 -13 -14 -14 -14 -14 -13 -14 -13 -13
-16 -16 -16 -16 -16 -15 -14 -13 -13 -13 -13 -13 -13 -15 -15 -15 -15 -15 -15 -15 -15 -15 -15 -15 -14 -14 -14 -13 -13 -13 -13 -13 -13 -13 -13 -13 -13 -14 -14 -13 -13 -13 -14 -13 -13
-16 -16 -16 -16 -16 -15 -14 -13 -14 -14 -14 -13 -14 -15 -16 -16 -16 -15 -15 -16 -16 -15 -15 -15 -14 -14 -14 -14 -13 -13 -13 -13 -13 -13 -13 -13 -14 -14 -14 -13 -12 -14 -14 -13 -13
-17 -17 -17 -17 -16 -15 -15 -15 -15 -14 -14 -14 -14 -14 -15 -16 -16 -16 -16 -16 -16 -16 -15 -15 -14 -14 -14 -14 -13 -13 -13 -13 -13 -13 -13 -13 -14 -13 -14 -12 -13 -14 -14 -13 -13
-21 -18 -18 -17 -16 -15 -15 -15 -15 -14 -15 -14 -14 -14 -14 -15 -16 -16 -16 -16 -16 -16 -16 -15 -14 -14 -14 -14 -13 -13 -14 -13 -13 -14 -13 -13 -13 -14 -14 -13 -13 -13 -14 -14 -14
-20 -20 -19 -18 -18 -17 -16 -15 -15 -15 -15 -15 -14 -14 -14 -15 -15 -16 -17 -17 -16 -16 -16 -15 -15 -14 -14 -14 -13 -13 -14 -13 -13 -13 -13 -13 -13 -14 -14 -13 -13 -13 -13 -14 -14
-21 -20 -20 -19 -18 -18 -16 -15 -15 -16 -16 -16 -16 -15 -15 -15 -16 -16 -16 -16 -16 -16 -15 -15 -15 -15 -14 -14 -13 -12 -14 -14 -14 -14 -14 -14 -14 -13 -14 -14 -14 -14 -13 -14 -14
Height
5822 5822 5823 5823 5822 5823 5823 5823 5824 5825 5824 5825 5825 5826 5825 5825 5826 5825 5826 5826 5825 5824 5822 5823 5823 5823 5823 5823 5822 5821 5821 5820 5818 5817 5816 5814 5812 5811 5809 5807 5805 5802 5800 5796 5792
5818 5819 5819 5819 5819 5819 5820 5820 5819 5820 5821 5821 5822 5823 5823 5823 5823 5823 5823 5822 5821 5822 5821 5821 5820 5820 5820 5820 5819 5818 5817 5817 5815 5814 5812 5810 5809 5807 5806 5803 5801 5799 5796 5792 5788
5813 5813 5815 5815 5815 5815 5816 5816 5816 5815 5817 5819 5819 5819 5820 5820 5820 5820 5821 5820 5819 5819 5819 5818 5818 5818 5817 5817 5816 5815 5814 5813 5812 5811 5809 5808 5806 5804 5802 5800 5798 5795 5792 5787 5783
5806 5807 5809 5811 5811 5811 5812 5812 5813 5814 5812 5815 5817 5817 5817 5817 5819 5818 5818 5818 5816 5816 5816 5815 5815 5815 5814 5813 5813 5812 5810 5810 5809 5807 5806 5804 5803 5801 5799 5797 5794 5792 5787 5783 5778
5799 5801 5803 5805 5806 5807 5808 5808 5808 5809 5809 5810 5812 5813 5814 5814 5815 5815 5814 5814 5813 5812 5812 5812 5811 5811 5810 5810 5809 5808 5807 5807 5806 5804 5802 5800 5798 5797 5795 5793 5791 5787 5783 5778 5772
5793 5795 5797 5799 5801 5802 5804 5805 5805 5806 5806 5807 5808 5808 5810 5811 5811 5811 5812 5811 5810 5809 5809 5809 5808 5807 5807 5806 5807 5806 5805 5803 5802 5801 5799 5798 5795 5793 5791 5788 5786 5783 5779 5773 5767
5785 5788 5791 5792 5795 5796 5799 5800 5800 5801 5802 5803 5805 5805 5806 5808 5808 5808 5808 5807 5807 5806 5806 5805 5805 5804 5803 5803 5802 5802 5801 5800 5798 5797 5795 5794 5792 5790 5787 5784 5782 5779 5774 5768 5763
5777 5781 5784 5786 5788 5790 5792 5794 5795 5797 5798 5799 5800 5801 5802 5803 5804 5806 5804 5803 5803 5802 5803 5802 5801 5801 5800 5800 5799 5798 5798 5797 5794 5792 5791 5790 5787 5786 5783 5781 5779 5775 5771 5765 5760
5770 5773 5777 5779 5782 5784 5787 5788 5790 5791 5793 5795 5797 5797 5799 5800 5800 5802 5799 5799 5799 5799 5799 5798 5798 5798 5798 5797 5797 5795 5795 5794 5792 5789 5788 5786 5783 5782 5780 5778 5775 5771 5767 5762 5756
5760 5765 5768 5772 5775 5777 5780 5783 5784 5786 5789 5790 5791 5794 5795 5796 5796 5798 5795 5795 5794 5796 5794 5793 5794 5794 5793 5793 5793 5792 5791 5790 5788 5787 5784 5783 5781 5779 5777 5774 5772 5768 5764 5759 5753
5750 5754 5759 5763 5767 5770 5774 5776 5780 5782 5782 5783 5786 5787 5788 5790 5791 5793 5790 5792 5790 5791 5790 5790 5791 5790 5789 5789 5789 5789 5788 5786 5784 5782 5781 5778 5778 5774 5773 5771 5769 5766 5762 5756 5750
5741 5745 5749 5753 5758 5762 5765 5768 5771 5775 5775 5777 5780 5781 5783 5786 5787 5788 5787 5789 5787 5787 5786 5787 5787 5786 5785 5784 5784 5784 5783 5781 5780 5776 5776 5773 5774 5771 5769 5767 5765 5763 5759 5754 5748
5730 5736 5739 5743 5747 5753 5757 5760 5762 5765 5767 5771 5773 5774 5777 5780 5781 5782 5784 5784 5782 5783 5782 5782 5783 5782 5781 5780 5780 5780 5778 5776 5776 5773 5771 5769 5770 5767 5765 5763 5761 5759 5756 5751 5745
5719 5724 5729 5734 5740 5743 5746 5749 5754 5757 5757 5763 5765 5768 5770 5773 5776 5777 5779 5781 5779 5779 5777 5778 5778 5778 5777 5776 5776 5775 5773 5772 5772 5769 5767 5766 5766 5764 5762 5760 5758 5756 5753 5748 5743
5707 5711 5717 5722 5728 5731 5736 5739 5743 5748 5746 5754 5757 5762 5764 5767 5772 5772 5774 5775 5774 5774 5775 5775 5774 5774 5774 5773 5772 5771 5769 5768 5768 5765 5764 5762 5762 5760 5758 5757 5755 5753 5750 5746 5741
5695 5701 5706 5710 5715 5720 5723 5728 5733 5738 5730 5738 5747 5752 5758 5761 5763 5766 5768 5769 5770 5770 5770 5770 5770 5770 5770 5769 5768 5766 5765 5764 5764 5761 5760 5759 5759 5757 5755 5753 5752 5749 5747 5744 5739
5682 5688 5694 5697 5702 5706 5710 5713 5721 5720 5724 5731 5738 5746 5751 5754 5756 5759 5762 5763 5764 5765 5765 5766 5766 5765 5765 5765 5764 5763 5762 5760 5761 5758 5757 5755 5755 5753 5752 5750 5748 5746 5744 5741 5737
5668 5673 5679 5682 5686 5689 5694 5702 5705 5710 5716 5723 5731 5737 5742 5746 5749 5752 5754 5756 5758 5759 5759 5761 5761 5761 5760 5760 5759 5758 5758 5757 5754 5755 5755 5753 5751 5750 5748 5746 5745 5743 5741 5739 5736
5656 5656 5664 5669 5670 5674 5677 5685 5694 5699 5706 5715 5721 5728 5733 5738 5742 5745 5747 5750 5751 5753 5755 5754 5755 5755 5755 5754 5755 5754 5753 5753 5751 5750 5749 5750 5748 5746 5744 5743 5742 5741 5739 5737 5734
5641 5642 5650 5652 5656 5657 5661 5678 5686 5691 5696 5703 5711 5717 5723 5728 5734 5737 5739 5743 5745 5747 5747 5748 5749 5750 5750 5750 5749 5749 5749 5748 5747 5745 5745 5746 5743 5741 5741 5740 5740 5738 5737 5735 5733
5627 5628 5635 5636 5642 5641 5653 5667 5674 5679 5687 5692 5700 5705 5713 5719 5724 5728 5732 5735 5737 5740 5741 5742 5743 5745 5744 5744 5743 5743 5743 5743 5742 5742 5738 5740 5741 5737 5737 5734 5735 5735 5734 5732 5730
5611 5613 5620 5621 5624 5631 5645 5655 5663 5665 5672 5679 5685 5693 5700 5707 5714 5719 5722 5727 5729 5731 5733 5735 5734 5737 5737 5737 5738 5738 5737 5736 5736 5737 5736 5734 5738 5731 5731 5728 5730 5732 5730 5728 5728
5590 5596 5599 5600 5607 5620 5633 5641 5646 5652 5658 5664 5671 5679 5688 5696 5701 5707 5711 5716 5719 5722 5724 5727 5728 5729 5730 5732 5731 5731 5731 5730 5729 5730 5732 5730 5733 5726 5725 5723 5726 5728 5725 5725 5725
5570 5576 5578 5583 5598 5609 5618 5625 5633 5640 5646 5651 5657 5664 5673 5681 5688 5695 5700 5705 5709 5712 5715 5718 5720 5722 5724 5722 5724 5725 5725 5724 5725 5726 5725 5728 5726 5723 5720 5720 5723 5724 5722 5721 5722
5549 5556 5564 5568 5584 5594 5601 5613 5620 5628 5633 5639 5644 5653 5661 5667 5674 5680 5687 5694 5698 5702 5705 5708 5711 5714 5715 5715 5714 5715 5718 5719 5719 5719 5718 5723 5721 5719 5715 5717 5717 5719 5719 5718 5718
5535 5542 5550 5559 5568 5576 5584 5600 5609 5617 5620 5628 5637 5645 5649 5654 5663 5668 5673 5679 5685 5690 5694 5698 5701 5704 5705 5707 5707 5708 5710 5713 5712 5713 5713 5714 5718 5711 5713 5714 5712 5714 5714 5714 5714
5520 5529 5533 5542 5551 5557 5573 5591 5597 5602 5612 5618 5626 5629 5635 5645 5649 5654 5659 5666 5670 5677 5683 5687 5689 5693 5696 5699 5699 5700 5709 5705 5707 5707 5706 5708 5711 5708 5709 5709 5708 5709 5710 5710 5710
Wind_Speed
23 20 20 21 20 21 22 21 21 22 21 20 20 19 16 16 17 16 17 17 18 19 17 17 16 16 16 18 20 19 17 17 17 18 20 21 21 22 22 22 23 23 26 31 34
27 25 23 21 21 21 23 22 21 21 21 20 19 18 18 17 17 17 18 19 19 21 18 18 17 18 17 18 19 19 18 18 18 19 19 19 20 21 22 22 22 24 28 32 34
29 27 24 24 23 22 23 23 21 20 20 20 19 19 19 18 18 18 18 20 20 21 20 20 19 19 19 20 20 20 19 19 19 18 17 18 20 21 22 21 22 25 29 33 35
31 29 26 27 25 24 23 23 22 21 19 20 20 19 19 19 19 16 17 19 20 21 22 21 20 21 21 20 19 20 21 20 19 19 19 19 21 22 20 19 23 27 29 33 35
33 31 30 29 27 26 25 24 23 22 21 21 20 20 19 19 18 17 17 18 20 21 23 22 22 21 21 20 19 20 21 21 20 21 20 21 22 22 20 21 25 28 30 32 36
35 33 32 30 28 27 27 25 24 24 22 22 21 19 18 19 19 18 16 16 20 22 22 23 22 21 20 20 20 20 20 21 20 21 21 22 23 22 21 21 25 27 30 33 35
37 36 35 31 29 30 30 27 26 25 24 23 22 21 19 19 19 18 17 18 22 23 23 22 21 21 20 19 20 20 20 20 20 20 22 23 24 22 21 21 25 27 31 32 34
41 39 37 34 33 32 32 29 27 25 24 23 22 22 20 19 19 20 21 23 25 24 23 21 21 22 20 20 21 21 22 22 22 21 22 23 23 21 22 23 25 28 31 32 34
44 42 39 36 35 33 33 30 27 25 25 24 23 23 22 21 20 22 21 20 21 21 21 19 21 21 20 21 23 22 23 25 24 24 23 23 24 22 22 23 25 28 30 30 34
47 44 43 39 37 36 34 32 29 27 27 26 26 24 24 23 20 22 19 20 18 21 18 17 20 21 21 23 24 24 26 26 27 24 23 23 24 24 22 24 25 27 28 29 32
50 45 47 42 42 40 37 35 32 30 31 31 28 28 26 24 22 22 19 21 19 18 18 16 19 20 21 24 24 26 28 29 27 26 22 24 22 26 23 23 24 25 26 27 31
50 51 51 48 45 43 41 38 36 33 35 34 31 30 30 28 24 21 18 20 20 18 16 16 18 20 21 22 24 27 31 30 25 25 22 24 21 24 23 22 23 24 25 25 29
54 55 54 50 49 47 44 42 40 36 37 37 34 32 32 32 27 21 21 22 19 19 17 18 17 19 19 20 23 25 28 26 25 23 23 23 21 22 22 21 21 22 23 23 28
57 57 55 54 52 49 47 46 45 41 42 41 38 35 33 34 30 24 22 22 19 19 18 17 18 19 20 21 22 24 25 25 24 22 21 22 22 20 21 20 19 20 21 21 26
61 59 56 54 54 51 51 50 48 46 48 45 43 36 34 34 28 27 26 23 21 21 19 19 20 21 23 24 24 23 23 23 22 21 20 21 22 19 19 19 19 19 20 19 23
59 61 61 58 57 56 55 54 51 51 60 49 44 41 38 35 34 32 30 27 24 23 22 22 23 23 25 26 26 23 23 22 21 21 20 21 20 18 19 19 17 17 17 17 20
59 60 61 66 63 61 58 56 56 60 56 53 45 40 40 37 36 36 34 32 28 25 24 25 25 25 26 27 27 26 25 24 21 19 19 19 19 21 19 18 16 16 16 15 18
60 60 61 62 68 71 63 58 63 62 60 58 48 45 39 36 38 37 37 35 29 27 29 27 26 27 26 27 27 27 26 26 26 21 18 19 20 20 20 18 15 15 16 14 15
62 61 59 59 63 63 72 70 64 64 62 58 53 52 41 39 37 37 37 36 32 29 29 27 24 25 27 27 26 25 25 27 26 22 22 18 21 22 21 20 17 15 16 15 14
57 62 63 58 57 56 58 63 68 67 65 60 58 53 51 45 40 38 38 36 35 31 31 31 29 26 27 27 28 29 26 27 27 28 24 20 20 24 24 22 19 16 16 15 15
59 58 60 61 58 58 57 57 57 66 65 64 58 57 52 48 46 42 41 38 37 36 36 34 33 29 28 29 29 29 30 29 29 27 28 22 19 22 23 27 22 17 16 15 14
64 61 61 63 60 57 57 54 52 50 57 66 59 60 56 51 48 46 46 43 41 41 41 39 38 33 31 31 30 27 28 32 32 28 28 27 15 22 21 28 23 16 17 17 13
72 66 62 64 65 62 59 56 53 51 48 55 66 61 57 55 52 50 50 48 46 46 46 43 40 37 34 33 32 29 28 30 32 30 23 26 15 23 23 26 20 15 17 17 13
71 63 63 68 67 64 63 58 54 51 51 49 57 66 63 58 57 54 54 51 49 49 47 44 42 39 35 36 33 29 28 29 30 28 26 20 19 24 24 26 17 13 16 20 15
75 76 63 64 66 67 65 61 57 55 55 53 53 51 61 64 61 59 57 55 52 51 50 46 43 40 38 37 36 34 29 28 29 31 30 19 21 23 29 26 24 17 16 19 21
72 76 75 64 60 66 67 65 61 59 56 54 53 50 49 59 63 62 63 58 56 54 51 48 44 43 42 39 37 37 31 27 28 29 29 24 17 29 24 23 24 21 17 19 20
73 70 76 67 65 63 65 61 62 59 54 51 49 51 54 54 62 63 60 60 60 56 53 51 49 47 42 40 37 37 25 28 26 25 28 24 20 29 24 21 22 20 17 20 19
Wind_Direction
257 257 266 269 263 254 248 248 252 253 251 254 256 257 259 264 270 272 269 275 279 278 277 278 283 289 297 303 305 303 297 291 292 294 297 299 301 303 305 308 315 322 327 331 336
253 255 261 264 262 254 249 248 248 251 252 250 251 253 257 262 267 271 270 271 276 279 276 275 279 287 296 303 303 297 302 297 297 295 295 297 298 305 310 312 314 319 326 330 335
249 252 256 261 259 251 246 246 246 246 250 252 248 248 253 256 261 267 272 276 276 277 276 276 279 285 295 300 297 294 303 301 298 298 297 296 298 306 313 313 315 321 327 330 333
244 246 248 257 255 249 244 242 243 244 244 247 251 251 255 259 260 263 271 277 276 276 276 275 281 288 294 296 291 291 298 298 297 302 305 304 303 306 314 315 320 323 327 333 335
243 243 246 248 254 250 243 239 239 239 239 242 245 250 255 255 259 263 269 276 278 275 274 275 280 284 292 297 293 290 294 293 295 300 306 307 304 305 311 316 321 325 333 336 338
239 242 244 244 251 250 245 240 240 241 240 243 245 247 251 251 254 257 265 276 280 276 273 273 276 281 292 296 294 294 295 294 296 299 305 306 301 305 306 317 322 328 336 339 340
240 240 241 239 243 247 243 239 239 241 241 243 247 248 245 250 252 253 263 277 283 278 273 273 275 279 288 291 289 290 293 294 296 301 307 306 301 302 306 319 324 330 336 339 340
237 240 240 239 240 241 241 240 240 241 243 241 244 242 242 242 249 255 270 280 284 276 271 274 275 280 286 290 287 289 294 292 292 296 301 305 299 303 310 318 323 332 337 341 341
237 235 240 240 241 240 241 240 240 241 242 241 245 240 236 237 250 261 272 279 282 274 271 272 276 279 284 288 290 290 294 293 293 294 299 306 303 303 307 313 322 332 337 341 342
232 234 236 240 242 241 239 239 240 242 244 242 238 239 231 241 250 266 270 276 277 272 268 276 279 282 286 287 289 290 296 296 292 291 296 301 303 300 305 313 322 333 337 341 344
230 233 234 240 241 242 238 238 241 243 243 237 239 234 231 239 250 267 272 274 270 268 275 279 282 285 286 286 286 291 295 300 291 288 288 294 303 300 303 310 318 331 336 341 345
231 230 233 236 240 240 238 239 241 242 241 239 237 233 233 240 248 264 275 274 273 268 272 279 284 285 285 285 284 288 297 299 290 286 289 292 301 299 300 308 315 327 335 341 346
230 232 233 239 240 238 237 240 241 241 242 241 238 235 236 238 243 260 271 266 272 268 269 275 281 282 286 289 291 297 303 298 290 287 291 289 296 296 300 307 314 324 334 341 345
231 233 235 239 237 235 237 237 240 242 244 239 237 234 236 238 243 255 263 264 265 267 267 271 275 281 285 287 292 301 305 298 293 292 290 290 295 299 300 306 311 323 335 341 346
239 231 232 233 232 233 237 238 238 241 242 238 237 236 237 238 244 249 257 262 260 265 267 270 274 279 284 288 291 298 303 298 294 293 294 293 300 301 305 304 313 323 332 339 347
237 239 233 231 232 234 236 237 236 239 241 239 235 235 236 238 241 245 253 260 263 262 264 268 272 278 282 285 290 294 301 300 296 294 295 297 300 305 300 301 309 316 327 336 348
239 238 237 235 232 234 234 234 232 233 236 241 239 236 236 236 240 245 250 254 260 261 265 271 271 271 277 283 286 293 297 300 296 295 295 296 301 303 304 301 304 310 321 329 348
236 239 239 235 239 234 231 230 231 235 237 242 239 238 235 235 239 243 246 250 256 260 263 271 274 268 273 279 283 287 293 296 300 300 294 293 299 302 308 302 298 303 311 317 338
237 236 236 239 237 242 234 231 233 234 238 239 242 240 238 234 236 240 246 250 251 257 264 269 276 272 271 276 281 285 287 290 292 296 300 296 292 295 298 303 305 298 306 312 323
232 237 235 235 238 239 240 241 240 240 241 240 238 239 239 237 237 240 243 245 252 257 263 269 271 275 272 275 278 280 283 285 289 290 293 299 292 292 294 298 304 303 301 306 311
227 232 237 236 235 238 238 238 242 245 244 241 237 236 239 239 238 237 242 247 250 255 260 263 267 271 275 272 278 277 277 280 283 286 291 296 297 297 294 293 296 300 295 298 307
226 230 234 233 231 236 236 238 239 242 243 243 240 233 235 234 236 237 239 239 244 249 256 260 265 269 273 273 276 277 280 279 281 287 284 290 304 299 290 288 294 299 284 288 302
225 228 227 232 233 235 237 237 239 238 242 243 239 234 231 232 233 234 235 237 239 245 251 256 260 267 269 272 272 272 280 280 277 283 286 281 304 290 290 292 304 303 279 280 294
226 228 236 231 232 233 235 235 236 237 239 241 240 238 231 228 230 233 237 239 237 242 246 251 256 260 265 268 267 271 274 280 279 281 277 286 278 287 286 292 316 301 282 277 283
234 233 237 239 228 233 235 233 232 233 238 239 239 238 241 234 227 230 232 234 236 238 243 248 252 256 259 262 264 270 275 278 281 278 276 267 275 266 282 295 299 298 277 275 278
225 233 236 238 230 229 232 232 233 234 233 237 239 242 241 240 237 228 228 230 230 235 240 244 250 252 253 254 260 268 276 283 281 281 277 269 278 269 279 288 293 296 290 279 279
227 224 233 238 234 230 229 232 232 229 230 235 235 239 237 239 240 238 238 238 234 231 236 240 244 248 247 250 258 262 278 283 285 285 275 273 264 272 275 280 287 293 292 278 278